SCP
0 0 0 0 0 0 0 0 0 0 -0 -0 -0 -0 -0 -0 -0 -0 0 0 0 0 0 -0 -0 0 0 0 0 0 0 0 0 0 0 0 0 0 0 0 0 0 0 0 0 0 0 0 0 0 0 0 0 0
0 0 0 0 0 0 0 0 0 0 0 -0 -0 0 -0 -0 -0 -0 -0 0 0 -0 0 0 0 0 0 -0 0 0 0 0 0 0 0 0 0 0 0 0 0 0 0 0 0 0 0 0 0 0 0 0 0 0
0 0 0 0 0 0 0 -0 0 0 0 0 -0 -0 -0 -0 -0 -0 -0 0 0 0 -0 0 0 0 0 0 0 0 0 0 0 0 0 0 0 0 0 0 0 0 0 0 0 0 0 0 0 0 0 0 0 0
0 0 0 0 0 0 0 -0 0 -0 -0 0 0 -0 -0 -0 -0 -0 0 -0 0 0 0 0 0 0 0 0 0 0 0 0 0 0 0 0 0 0 0 0 0 0 0 0 0 0 0 0 0 0 0 0 0 0
0 0 0 0 0 0 0 0 -0 -0 -0 -0 -0 -0 -0 -0 -0 -0 0 0 0 0 0 0 -0 -0 0 0 0 0 0 0 0 0 0 0 0 0 0 0 0 0 0 0 0 0 0 0 0 0 0 0 0 0
0 0 0 0 0 0 0 0 -0 -0 -0 -0 -0 -0 -0 -0 -0 0 0 -0 -0 0 0 0 0 0 0 0 0 0 0 0 0 0 0 0 0 0 0 0 0 0 0 0 0 0 0 0 0 0 0 0 0 0
0 0 0 -0 -0 0 0 0 -0 -0 0 -0 -0 -0 -0 0 0 -0 0 0 -0 0 0 0 -0 0 0 0 0 0 0 0 0 0 0 0 0 0 0 0 0 0 0 0 0 0 0 0 0 0 0 0 0 0
0 0 -0 -0 -0 0 0 -0 -0 -0 -0 -0 -0 0 -0 0 -0 -0 0 -0 -0 0 0 0 0 0 0 0 0 0 0 0 0 0 0 0 0 0 0 0 0 0 0 0 0 0 0 0 0 0 0 0 0 0
0 0 -0 -0 -0 -0 0 -0 0 -0 -0 -0 0 -0 0 -0 -0 -0 -0 -0 -0 0 0 0 0 0 0 0 0 0 0 0 0 0 0 0 0 0 0 0 0 0 0 0 0 0 0 0 0 0 0 0 0 0
0 0 -0 -0 0 0 0 0 -0 -0 -0 -0 0 0 -0 -0 -0 -0 0 -0 -0 0 0 0 0 0 0 0 0 0 0 0 0 0 -0 0 0 0 0 0 0 0 0 0 0 0 0 0 0 0 0 0 0 0
-0 -0 -0 -0 -0 -0 0 -0 -0 -0 0 0 0 0 0 -0 0 0 -0 0 0 0 0 0 0 0 0 0 0 0 0 0 0 0 0 0 0 0 0 0 0 0 0 0 0 0 0 0 0 0 0 0 0 0
-0 -0 -0 0 -0 -0 -0 -0 -0 0 0 0 0 0 0 0 0 0 -0 -0 -0 0 0 0 0 0 0 0 0 0 0 0 0 0 0 0 0 0 0 0 0 0 0 0 0 0 0 0 0 0 0 0 0 -0
-0 -0 -0 -0 -0 -0 -0 -0 -0 0 0 0 0 0 0 0 0 0 -0 -0 -0 0 0 0 0 0 0 0 0 0 0 0 0 0 0 0 -0 0 0 0 0 0 0 0 0 0 0 -0 0 0 -0 0 -0 -0
0 -0 -0 -0 -0 -0 -0 0 0 -0 0 0 0 0 0 0 0 0 0 -0 0 0 0 0 0 0 0 0 0 0 0 0 0 0 0 0 -0 -0 -0 0 0 0 0 0 0 0 0 0 -0 0 -0 -0 -0 -0
0 -0 -0 -0 0 -0 -0 0 -0 0 -0 0 0 0 0 0 0 0 0 -0 0 0 0 0 0 0 0 0 0 0 0 0 0 0 0 0 -0 -0 -0 0 0 0 0 0 0 0 0 0 0 -0 -0 -0 0 0
-0 -0 0 0 0 0 0 0 0 0 0 -0 -0 -0 -0 0 0 0 0 0 0 0 -0 0 0 0 0 0 0 0 0 0 0 0 -0 -0 -0 -0 -0 -0 -0 -0 -0 -0 0 0 0 0 0 -0 -0 -0 0 0
0 0 0 0 0 0 0 0 0 -0 0 0 0 -0 -0 0 0 0 0 0 0 0 0 0 0 0 0 0 0 0 0 0 0 0 0 -0 -0 -0 -0 -0 -0 -0 0 -0 0 0 0 0 0 0 0 0 0 0
0 0 0 0 0 0 0 0 0 0 0 0 0 0 0 0 0 0 0 0 0 0 0 0 0 0 0 0 0 0 0 0 0 0 -0 -0 -0 -0 -0 -0 -0 -0 0 0 -0 0 -0 0 0 0 0 0 0 0
0 0 0 0 0 0 0 0 0 0 0 0 0 0 0 0 -0 0 0 0 0 0 0 0 0 0 0 0 0 -0 0 0 -0 0 0 -0 -0 -0 -0 -0 -0 -0 0 0 -0 -0 -0 -0 -0 -0 -0 -0 0 0
0 0 0 0 0 0 0 0 0 0 0 0 0 0 0 0 0 0 0 0 0 0 0 0 0 0 0 0 -0 0 0 0 -0 -0 -0 -0 0 0 0 0 -0 -0 -0 0 -0 -0 -0 -0 -0 -0 -0 -0 -0 -0
0 0 0 0 0 0 0 0 0 0 0 0 0 0 0 0 0 0 0 -0 0 0 0 0 0 -0 -0 0 -0 -0 0 0 0 -0 -0 -0 0 0 0 0 -0 0 -0 -0 -0 -0 -0 -0 -0 -0 -0 -0 -0 -0
0 -0 -0 0 0 0 0 0 0 0 0 0 0 0 0 0 0 0 0 -0 0 0 0 0 0 -0 -0 -0 -0 -0 0 0 -0 -0 -0 -0 0 0 0 0 0 0 0 0 -0 -0 -0 -0 -0 -0 -0 -0 -0 -0
0 -0 -0 0 0 0 0 0 0 0 0 0 0 0 0 0 0 0 0 0 0 0 0 0 -0 -0 -0 -0 -0 -0 -0 0 0 -0 -0 0 -0 -0 0 0 0 0 -0 -0 0 0 -0 -0 -0 -0 -0 -0 -0 -0
0 0 0 0 0 0 0 0 0 0 0 0 0 0 0 0 0 0 0 0 0 0 0 0 0 0 0 0 0 0 0 -0 0 -0 -0 0 0 -0 -0 -0 0 -0 -0 -0 -0 -0 -0 -0 -0 -0 0 0 -0 -0
0 0 0 0 0 0 0 0 0 0 0 0 0 0 0 0 0 0 0 0 0 0 0 0 0 0 0 0 0 0 0 0 0 -0 -0 0 0 0 0 0 -0 -0 -0 -0 -0 -0 -0 -0 -0 -0 -0 0 0 0
0 0 0 0 0 0 0 0 0 0 0 0 0 0 0 0 0 0 0 0 0 0 0 0 0 0 0 0 0 0 0 0 -0 -0 -0 0 0 0 0 0 0 0 0 -0 -0 -0 -0 -0 -0 -0 -0 -0 -0 0
0 0 0 0 0 0 0 0 0 0 0 0 0 0 0 0 0 0 0 0 0 0 0 0 0 -0 0 0 0 0 0 0 0 0 0 0 -0 0 0 0 0 0 0 0 0 0 -0 -0 -0 -0 -0 0 0 0
0 0 0 0 -0 -0 -0 -0 -0 -0 0 0 0 0 0 0 0 0 0 0 0 0 0 0 0 0 0 0 0 0 0 0 0 0 0 0 0 0 0 0 0 0 0 0 0 0 0 0 0 0 0 0 0 0
0 0 0 0 -0 -0 -0 -0 -0 0 0 0 0 0 0 0 0 0 0 0 0 0 0 0 0 0 0 0 0 0 0 0 0 0 0 0 0 0 -0 -0 0 0 0 0 0 0 0 0 0 0 0 0 0 0
0 0 -0 -0 -0 -0 0 0 0 0 0 0 0 0 0 0 0 0 0 0 0 0 0 0 0 0 0 0 0 0 0 0 0 0 0 0 0 0 0 -0 -0 -0 -0 -0 0 0 0 0 0 0 0 0 0 0
0 0 0 0 0 0 0 0 0 0 0 0 0 0 0 0 0 0 0 0 0 0 0 0 0 0 0 0 0 0 0 0 0 0 0 0 0 0 0 0 0 0 -0 -0 -0 -0 0 0 0 0 0 0 0 0
0 0 0 0 0 0 0 0 0 0 0 0 0 0 0 0 0 0 0 0 0 0 0 0 0 0 0 0 0 0 0 0 0 0 0 0 0 0 0 0 0 0 0 0 0 0 0 0 0 0 0 0 0 0
0 0 0 0 0 0 0 0 0 0 0 0 0 0 0 0 0 0 0 0 0 0 0 0 0 0 0 0 0 0 0 0 0 0 0 0 0 0 0 0 0 0 0 0 0 0 0 0 0 0 0 0 0 0
Wind_Speed_500mb
47 35 32 38 42 46 37 38 41 39 39 34 29 32 37 38 35 33 18 26 21 12 9 26 28 20 21 23 11 5 10 9 9 7 6 6 9 7 8 12 16 11 11 8 8 7 5 11 14 9 16 14 7 5
44 26 35 37 41 43 36 33 33 37 36 30 24 28 35 34 35 32 22 24 22 5 13 16 16 17 13 15 16 12 7 6 13 4 8 5 5 7 14 9 10 8 4 9 7 8 12 14 17 11 5 1 3 8
34 29 34 39 41 40 38 25 28 31 34 32 29 29 29 35 36 37 20 27 20 10 3 7 11 11 10 11 14 13 13 7 11 8 7 4 7 6 6 9 10 7 7 3 11 12 12 15 9 2 6 10 9 10
31 29 36 39 38 39 36 21 28 31 33 29 27 30 31 32 30 28 23 27 20 7 7 13 17 10 13 10 11 15 10 13 10 10 9 6 5 8 5 6 1 8 10 6 6 13 8 8 4 8 11 10 12 16
27 30 34 33 35 35 34 22 24 28 30 30 28 31 33 33 26 18 13 22 24 8 8 8 3 26 14 9 12 15 14 13 12 9 8 6 5 4 5 3 5 1 7 4 7 12 7 8 10 16 13 13 16 15
26 30 33 30 32 34 33 29 31 32 31 34 31 31 34 29 18 8 5 13 19 13 7 3 5 19 21 18 20 17 15 15 15 10 8 7 6 6 1 4 10 8 2 4 4 5 7 10 11 9 12 13 8 6
28 28 31 30 31 34 32 31 31 32 35 35 34 30 25 19 11 4 7 11 19 11 7 5 7 9 13 7 11 18 14 11 9 6 7 6 9 5 4 3 9 11 9 7 7 10 13 6 4 9 11 6 4 4
32 28 26 28 31 33 31 27 28 35 35 35 27 20 11 13 8 8 7 11 16 6 4 4 3 6 13 7 6 12 6 6 13 6 4 6 6 5 3 9 6 9 6 5 5 5 5 6 11 7 8 6 13 16
34 35 23 26 28 30 32 24 28 32 35 24 19 13 10 9 9 12 11 6 9 6 5 4 3 4 7 8 5 5 5 4 5 5 4 5 4 3 11 10 5 2 4 9 14 11 4 6 6 10 11 15 20 23
33 34 24 25 27 27 29 28 25 29 29 21 12 5 5 9 16 11 6 3 1 2 2 3 3 3 4 3 2 1 5 2 2 8 4 4 5 9 14 13 4 6 8 10 13 12 13 13 14 16 18 20 21 21
30 31 23 22 24 27 28 26 24 28 22 16 12 7 14 12 7 3 4 5 5 2 4 6 8 5 5 3 3 2 2 2 1 5 2 0 4 2 12 22 20 18 15 13 11 10 11 12 15 17 19 18 12 18
28 29 26 20 20 26 28 21 19 23 20 20 15 12 11 6 4 3 2 1 3 4 4 5 5 5 5 4 1 3 1 3 4 8 3 7 5 8 13 18 18 16 14 14 14 13 13 15 17 15 10 15 17 18
30 33 28 16 17 19 22 17 18 19 19 9 10 5 6 4 3 3 3 5 3 9 6 2 4 1 4 3 6 2 1 3 5 4 5 6 19 16 14 14 16 18 21 20 19 18 17 18 12 16 14 16 18 16
23 25 22 15 13 14 16 14 13 17 9 6 7 5 5 2 6 4 9 7 6 6 1 6 2 4 1 4 3 4 3 3 4 5 4 5 21 18 14 14 17 19 20 20 18 21 23 21 17 19 19 19 16 16
24 19 19 7 10 14 11 11 10 9 5 4 4 5 6 8 11 11 5 6 5 2 2 1 2 5 2 2 2 2 3 4 3 4 3 21 22 19 17 19 17 17 20 21 19 23 25 25 21 22 23 21 18 20
30 24 4 8 8 10 10 11 6 6 3 3 1 4 9 7 5 4 2 9 1 3 3 4 4 5 3 2 3 4 5 1 4 6 22 24 21 19 20 19 17 17 19 20 22 23 25 27 25 24 23 25 27 26
29 24 13 12 10 8 9 7 5 2 3 3 2 2 4 9 12 13 16 9 3 3 0 4 3 6 2 3 4 1 3 5 27 19 21 21 20 21 20 17 15 16 19 21 21 23 25 26 27 28 32 29 29 31
34 21 15 11 11 7 7 3 3 3 4 4 3 6 5 10 13 10 9 4 2 3 3 1 2 7 1 4 3 1 13 18 21 22 21 21 21 20 17 16 16 17 20 21 21 24 25 26 30 32 32 33 35 36
22 14 17 12 8 2 3 3 1 4 5 5 5 3 5 6 7 8 7 3 3 1 4 5 4 4 3 3 8 19 23 22 24 22 22 22 21 21 21 20 19 18 20 21 21 23 26 28 29 29 29 31 41 41
13 15 14 10 11 2 1 2 2 5 5 4 7 5 7 8 4 2 1 6 5 3 6 6 5 11 8 15 4 7 17 20 21 23 23 22 19 20 19 17 16 18 19 20 21 22 21 24 27 32 34 34 33 33
11 11 14 15 9 7 2 3 4 5 7 6 7 7 6 7 8 6 1 4 7 9 5 8 22 33 18 8 9 9 15 17 15 20 25 25 20 17 16 16 16 14 15 15 17 21 22 25 25 24 24 26 29 35
7 9 7 8 3 3 3 6 6 7 5 7 8 8 7 6 2 4 6 12 7 6 9 18 29 28 18 16 10 4 15 20 17 17 21 23 21 18 16 16 15 14 14 15 15 17 19 20 20 24 26 29 31 29
13 8 3 2 2 3 3 3 4 4 4 4 6 5 5 5 3 7 8 7 6 10 13 17 22 19 10 10 14 6 13 20 20 18 23 20 18 17 17 16 15 15 16 16 16 18 22 25 26 25 26 25 25 28
3 2 3 3 5 2 3 4 6 6 7 6 4 2 4 3 6 2 5 6 5 9 16 21 22 17 8 9 5 5 10 10 14 20 26 23 20 19 17 16 15 15 15 19 18 19 18 21 23 20 20 21 22 23
3 4 5 5 4 5 5 4 5 7 4 3 4 3 5 3 1 3 4 4 6 10 15 18 19 18 10 5 7 8 5 7 13 23 25 22 20 23 21 18 17 17 18 19 20 19 20 20 20 21 21 21 22 22
6 6 7 1 6 5 2 4 2 1 2 1 6 6 3 2 2 4 3 4 7 11 17 20 21 19 13 8 3 7 6 4 10 16 22 22 20 23 27 27 24 22 19 18 22 23 22 22 23 25 26 25 26 22
5 6 7 5 3 4 4 2 4 3 2 3 2 1 1 4 3 4 2 5 8 13 17 16 18 21 18 17 6 6 7 7 18 14 15 19 19 19 24 27 25 24 27 24 22 22 23 23 23 21 21 20 19 19
8 6 4 5 4 2 4 3 5 3 1 2 5 0 2 4 3 2 2 8 13 16 16 15 16 21 21 15 12 11 4 5 14 17 16 18 21 24 25 23 24 24 28 27 24 22 21 21 21 20 18 16 15 14
8 5 5 9 4 3 0 1 2 3 1 2 2 1 3 3 1 2 4 8 10 14 16 15 12 20 12 8 7 24 3 3 9 14 21 23 26 27 27 27 30 30 28 27 26 23 22 21 20 19 18 16 15 13
7 11 7 5 4 2 3 2 4 3 2 2 4 4 2 2 5 1 7 9 8 9 12 15 15 18 18 7 8 27 20 3 11 12 9 14 19 23 35 31 29 30 32 31 28 27 23 20 18 18 17 15 14 13
3 6 5 2 2 1 4 6 7 8 5 3 4 1 2 5 5 8 7 11 9 9 10 11 12 13 15 13 7 15 28 23 20 20 18 14 10 18 28 33 32 33 35 35 31 29 28 24 22 20 18 15 15 14
7 5 6 4 4 5 8 8 9 8 7 6 4 3 2 2 4 5 6 11 10 9 10 11 13 14 15 13 12 11 19 38 40 14 16 14 10 16 20 25 29 34 37 35 31 30 29 25 23 20 17 15 15 15
7 8 5 5 5 7 8 9 9 6 6 6 5 6 5 4 3 8 8 12 14 12 11 10 11 13 15 15 13 11 13 20 36 23 22 23 21 19 18 22 28 32 34 33 32 31 29 27 25 20 16 16 14 13
Wind_Direction_500mb
339 341 344 351 345 345 345 348 354 355 352 358 356 354 357 3 6 11 343 1 2 325 356 6 3 7 17 34 62 263 313 23 347 45 48 69 111 99 115 142 155 171 153 172 164 191 185 155 151 247 84 119 139 181
345 344 346 344 343 342 339 349 355 352 358 356 351 347 349 360 2 2 354 355 338 311 321 359 46 20 27 21 354 65 77 39 18 45 53 79 113 170 136 145 173 168 91 169 186 70 99 140 79 107 103 324 279 281
348 345 345 346 340 343 344 341 350 347 355 360 353 354 356 357 358 355 343 351 14 351 148 77 5 354 26 14 15 342 70 29 57 18 32 65 91 295 142 96 122 128 181 154 194 121 135 143 160 139 318 305 311 293
344 345 349 344 342 343 342 337 347 343 349 347 354 351 347 344 347 353 15 17 16 331 309 73 37 17 345 15 22 35 61 56 63 45 60 54 88 330 78 77 238 34 192 192 198 145 159 173 46 357 330 317 303 293
341 354 348 343 349 346 343 340 340 336 341 340 338 338 335 332 334 331 330 359 9 12 335 22 54 15 29 61 59 68 56 42 31 56 56 63 60 312 75 223 143 216 24 249 41 51 337 21 344 324 314 306 304 308
341 347 339 337 343 348 346 342 333 333 334 335 328 332 337 336 338 340 323 2 17 8 330 358 60 43 59 76 84 74 56 45 52 44 61 71 53 333 357 98 79 69 53 356 344 355 305 291 294 312 319 326 328 326
329 337 336 330 335 342 342 340 339 341 337 333 329 331 340 0 20 35 24 345 4 11 341 278 114 7 11 66 60 56 48 46 37 78 53 57 75 4 358 75 67 34 11 334 293 283 279 278 330 327 318 309 325 308
325 318 323 326 329 339 340 339 337 337 338 333 334 340 360 21 44 26 53 25 14 356 347 336 2 1 4 49 53 18 34 34 36 63 46 26 81 21 97 73 42 45 76 43 59 23 322 329 310 329 337 308 289 291
327 321 306 320 329 335 345 330 338 344 345 339 339 358 23 17 13 340 320 27 53 29 359 303 357 62 28 38 62 30 8 73 33 54 45 345 90 74 33 335 289 247 37 17 344 306 331 315 308 312 307 300 302 305
325 324 302 318 331 337 341 339 339 345 347 344 359 8 8 338 327 342 354 338 102 48 9 315 68 70 43 57 55 118 16 70 89 53 83 27 73 351 337 344 270 263 262 342 332 3 353 332 337 319 315 312 308 308
326 324 306 318 327 337 340 335 341 349 1 9 2 358 321 329 359 336 340 341 14 32 18 22 15 43 63 28 99 7 114 215 145 83 317 147 124 210 40 67 68 70 69 52 37 16 1 347 335 326 324 327 351 328
330 328 315 309 319 334 341 334 337 355 354 332 317 328 348 347 309 292 37 122 330 42 55 355 54 18 40 1 1 47 23 211 73 127 191 161 99 96 88 75 69 58 48 39 32 34 24 11 357 352 14 353 346 334
325 328 320 305 313 339 342 340 350 350 340 0 15 329 334 345 282 333 58 113 21 349 349 306 168 247 178 237 76 47 205 61 101 217 187 74 116 133 108 82 67 64 52 51 58 46 27 18 21 18 16 7 355 352
327 332 323 302 310 335 337 340 341 349 358 357 357 353 350 357 18 323 337 341 1 306 249 315 180 261 283 192 161 227 77 218 233 202 96 111 145 128 101 89 91 65 52 62 57 38 36 27 26 11 14 12 12 14
312 318 324 277 319 333 335 339 353 1 359 352 335 357 18 336 290 290 294 274 271 271 113 118 276 304 195 148 299 83 183 209 271 60 105 148 134 121 109 106 94 68 57 58 53 43 40 34 32 27 23 30 35 28
304 315 283 261 307 337 344 349 338 12 342 331 317 321 341 290 9 18 236 275 213 149 115 205 187 226 176 353 220 222 304 347 80 112 141 133 128 122 120 111 94 69 65 63 56 51 45 42 36 31 39 37 43 44
282 270 276 236 265 309 318 358 359 323 310 300 144 340 310 285 281 313 332 358 28 288 317 300 264 56 26 232 212 8 10 91 123 137 127 126 131 130 126 115 99 76 70 67 62 57 53 51 50 47 47 44 48 54
249 258 249 225 257 320 330 34 337 282 262 228 247 92 284 272 289 307 333 329 280 333 292 331 186 221 343 347 73 278 133 121 116 118 121 127 128 125 122 118 107 88 78 74 71 66 62 57 56 53 51 58 59 57
240 232 216 220 223 257 22 0 324 288 271 296 274 283 273 285 274 289 299 40 14 333 295 305 301 38 28 84 126 141 125 130 128 123 123 129 126 123 118 114 107 94 84 80 78 75 68 66 67 63 58 55 61 62
190 187 188 199 201 242 267 226 327 282 272 324 279 288 287 291 304 252 274 1 16 23 17 31 18 335 308 300 292 129 132 133 134 133 132 136 135 129 121 118 116 108 90 80 75 77 80 75 70 73 72 67 65 64
124 161 176 176 191 209 208 305 253 264 300 282 283 290 261 264 255 236 131 33 61 38 32 345 331 343 36 165 202 166 156 150 138 139 143 139 143 143 135 130 122 112 101 93 87 80 81 82 84 82 78 75 72 69
144 167 178 172 130 191 262 247 263 296 267 265 274 242 227 240 197 103 99 59 66 27 342 335 341 356 41 48 10 225 171 163 152 145 149 147 141 140 140 145 137 123 111 106 104 102 96 92 90 87 86 79 77 80
80 74 92 96 161 199 262 228 262 259 258 246 229 229 203 154 91 148 92 80 99 28 2 350 355 6 44 26 29 105 152 167 172 166 163 156 149 142 138 140 140 134 128 121 115 113 113 104 100 96 91 86 81 76
61 229 246 231 210 243 234 236 233 252 250 239 227 201 129 52 165 162 81 74 66 16 14 8 19 25 97 55 60 121 137 160 171 166 166 164 158 154 149 143 141 138 142 137 128 120 120 119 107 104 100 95 90 87
298 212 218 223 216 236 220 210 228 234 238 204 250 154 73 66 152 63 66 67 38 16 1 9 25 18 19 32 53 44 163 162 174 171 172 170 167 163 157 148 145 148 147 144 141 135 129 124 121 116 109 105 102 94
261 202 205 243 158 228 224 274 287 301 291 283 51 35 10 261 223 90 79 27 8 347 348 355 354 353 2 345 294 347 305 271 190 180 189 190 191 187 177 166 160 161 161 158 152 147 139 135 129 122 116 110 104 102
262 246 220 242 272 241 250 204 177 228 74 22 22 320 285 251 115 89 101 348 345 334 332 335 332 327 321 319 253 274 296 248 201 199 198 204 200 193 192 182 175 174 163 158 154 154 152 147 142 136 129 121 114 109
266 280 260 235 238 248 314 338 26 37 64 14 277 282 10 8 50 78 33 322 324 330 331 326 325 322 313 300 236 226 20 284 178 165 165 167 164 154 162 166 170 168 162 160 158 157 159 160 159 155 148 141 132 122
240 234 266 260 246 201 123 45 112 99 15 293 295 100 108 89 155 283 296 311 321 335 341 341 325 333 315 271 214 208 263 198 179 177 171 163 158 165 165 168 168 171 171 173 171 169 167 165 167 168 165 162 161 153
231 206 240 209 230 193 171 186 150 170 83 119 123 109 130 154 219 311 337 314 300 325 344 349 347 341 355 327 224 192 190 194 167 147 185 184 189 186 193 195 194 185 190 190 190 189 185 188 188 184 177 175 177 179
246 206 256 242 211 136 186 194 158 143 132 115 83 83 124 214 258 268 293 340 334 321 328 334 347 346 348 348 317 207 189 198 194 213 214 206 220 206 207 206 201 196 197 197 200 195 187 181 180 180 182 185 191 182
205 223 175 188 172 194 175 175 184 205 193 198 188 169 173 226 237 232 284 333 339 329 322 327 339 351 354 338 324 289 232 212 204 220 203 188 199 196 201 198 198 194 191 187 179 175 172 173 172 171 171 184 174 174
203 185 181 160 163 189 196 194 208 192 194 207 198 201 208 265 251 251 304 330 333 322 320 322 337 348 347 343 327 307 270 227 200 205 196 203 180 167 173 176 179 175 175 172 168 171 175 179 183 191 199 198 199 212
Wind_Speed_850mb
47 35 32 38 42 46 37 38 41 39 39 34 29 32 37 38 35 33 18 26 21 12 9 26 28 20 21 23 11 5 10 9 9 7 6 6 9 7 8 12 16 11 11 8 8 7 5 11 14 9 16 14 7 5
44 26 35 37 41 43 36 33 33 37 36 30 24 28 35 34 35 32 22 24 22 5 13 16 16 17 13 15 16 12 7 6 13 4 8 5 5 7 14 9 10 8 4 9 7 8 12 14 17 11 5 1 3 8
34 29 34 39 41 40 38 25 28 31 34 32 29 29 29 35 36 37 20 27 20 10 3 7 11 11 10 11 14 13 13 7 11 8 7 4 7 6 6 9 10 7 7 3 11 12 12 15 9 2 6 10 9 10
31 29 36 39 38 39 36 21 28 31 33 29 27 30 31 32 30 28 23 27 20 7 7 13 17 10 13 10 11 15 10 13 10 10 9 6 5 8 5 6 1 8 10 6 6 13 8 8 4 8 11 10 12 16
27 30 34 33 35 35 34 22 24 28 30 30 28 31 33 33 26 18 13 22 24 8 8 8 3 26 14 9 12 15 14 13 12 9 8 6 5 4 5 3 5 1 7 4 7 12 7 8 10 16 13 13 16 15
26 30 33 30 32 34 33 29 31 32 31 34 31 31 34 29 18 8 5 13 19 13 7 3 5 19 21 18 20 17 15 15 15 10 8 7 6 6 1 4 10 8 2 4 4 5 7 10 11 9 12 13 8 6
28 28 31 30 31 34 32 31 31 32 35 35 34 30 25 19 11 4 7 11 19 11 7 5 7 9 13 7 11 18 14 11 9 6 7 6 9 5 4 3 9 11 9 7 7 10 13 6 4 9 11 6 4 4
32 28 26 28 31 33 31 27 28 35 35 35 27 20 11 13 8 8 7 11 16 6 4 4 3 6 13 7 6 12 6 6 13 6 4 6 6 5 3 9 6 9 6 5 5 5 5 6 11 7 8 6 13 16
34 35 23 26 28 30 32 24 28 32 35 24 19 13 10 9 9 12 11 6 9 6 5 4 3 4 7 8 5 5 5 4 5 5 4 5 4 3 11 10 5 2 4 9 14 11 4 6 6 10 11 15 20 23
33 34 24 25 27 27 29 28 25 29 29 21 12 5 5 9 16 11 6 3 1 2 2 3 3 3 4 3 2 1 5 2 2 8 4 4 5 9 14 13 4 6 8 10 13 12 13 13 14 16 18 20 21 21
30 31 23 22 24 27 28 26 24 28 22 16 12 7 14 12 7 3 4 5 5 2 4 6 8 5 5 3 3 2 2 2 1 5 2 0 4 2 12 22 20 18 15 13 11 10 11 12 15 17 19 18 12 18
28 29 26 20 20 26 28 21 19 23 20 20 15 12 11 6 4 3 2 1 3 4 4 5 5 5 5 4 1 3 1 3 4 8 3 7 5 8 13 18 18 16 14 14 14 13 13 15 17 15 10 15 17 18
30 33 28 16 17 19 22 17 18 19 19 9 10 5 6 4 3 3 3 5 3 9 6 2 4 1 4 3 6 2 1 3 5 4 5 6 19 16 14 14 16 18 21 20 19 18 17 18 12 16 14 16 18 16
23 25 22 15 13 14 16 14 13 17 9 6 7 5 5 2 6 4 9 7 6 6 1 6 2 4 1 4 3 4 3 3 4 5 4 5 21 18 14 14 17 19 20 20 18 21 23 21 17 19 19 19 16 16
24 19 19 7 10 14 11 11 10 9 5 4 4 5 6 8 11 11 5 6 5 2 2 1 2 5 2 2 2 2 3 4 3 4 3 21 22 19 17 19 17 17 20 21 19 23 25 25 21 22 23 21 18 20
30 24 4 8 8 10 10 11 6 6 3 3 1 4 9 7 5 4 2 9 1 3 3 4 4 5 3 2 3 4 5 1 4 6 22 24 21 19 20 19 17 17 19 20 22 23 25 27 25 24 23 25 27 26
29 24 13 12 10 8 9 7 5 2 3 3 2 2 4 9 12 13 16 9 3 3 0 4 3 6 2 3 4 1 3 5 27 19 21 21 20 21 20 17 15 16 19 21 21 23 25 26 27 28 32 29 29 31
34 21 15 11 11 7 7 3 3 3 4 4 3 6 5 10 13 10 9 4 2 3 3 1 2 7 1 4 3 1 13 18 21 22 21 21 21 20 17 16 16 17 20 21 21 24 25 26 30 32 32 33 35 36
22 14 17 12 8 2 3 3 1 4 5 5 5 3 5 6 7 8 7 3 3 1 4 5 4 4 3 3 8 19 23 22 24 22 22 22 21 21 21 20 19 18 20 21 21 23 26 28 29 29 29 31 41 41
13 15 14 10 11 2 1 2 2 5 5 4 7 5 7 8 4 2 1 6 5 3 6 6 5 11 8 15 4 7 17 20 21 23 23 22 19 20 19 17 16 18 19 20 21 22 21 24 27 32 34 34 33 33
11 11 14 15 9 7 2 3 4 5 7 6 7 7 6 7 8 6 1 4 7 9 5 8 22 33 18 8 9 9 15 17 15 20 25 25 20 17 16 16 16 14 15 15 17 21 22 25 25 24 24 26 29 35
7 9 7 8 3 3 3 6 6 7 5 7 8 8 7 6 2 4 6 12 7 6 9 18 29 28 18 16 10 4 15 20 17 17 21 23 21 18 16 16 15 14 14 15 15 17 19 20 20 24 26 29 31 29
13 8 3 2 2 3 3 3 4 4 4 4 6 5 5 5 3 7 8 7 6 10 13 17 22 19 10 10 14 6 13 20 20 18 23 20 18 17 17 16 15 15 16 16 16 18 22 25 26 25 26 25 25 28
3 2 3 3 5 2 3 4 6 6 7 6 4 2 4 3 6 2 5 6 5 9 16 21 22 17 8 9 5 5 10 10 14 20 26 23 20 19 17 16 15 15 15 19 18 19 18 21 23 20 20 21 22 23
3 4 5 5 4 5 5 4 5 7 4 3 4 3 5 3 1 3 4 4 6 10 15 18 19 18 10 5 7 8 5 7 13 23 25 22 20 23 21 18 17 17 18 19 20 19 20 20 20 21 21 21 22 22
6 6 7 1 6 5 2 4 2 1 2 1 6 6 3 2 2 4 3 4 7 11 17 20 21 19 13 8 3 7 6 4 10 16 22 22 20 23 27 27 24 22 19 18 22 23 22 22 23 25 26 25 26 22
5 6 7 5 3 4 4 2 4 3 2 3 2 1 1 4 3 4 2 5 8 13 17 16 18 21 18 17 6 6 7 7 18 14 15 19 19 19 24 27 25 24 27 24 22 22 23 23 23 21 21 20 19 19
8 6 4 5 4 2 4 3 5 3 1 2 5 0 2 4 3 2 2 8 13 16 16 15 16 21 21 15 12 11 4 5 14 17 16 18 21 24 25 23 24 24 28 27 24 22 21 21 21 20 18 16 15 14
8 5 5 9 4 3 0 1 2 3 1 2 2 1 3 3 1 2 4 8 10 14 16 15 12 20 12 8 7 24 3 3 9 14 21 23 26 27 27 27 30 30 28 27 26 23 22 21 20 19 18 16 15 13
7 11 7 5 4 2 3 2 4 3 2 2 4 4 2 2 5 1 7 9 8 9 12 15 15 18 18 7 8 27 20 3 11 12 9 14 19 23 35 31 29 30 32 31 28 27 23 20 18 18 17 15 14 13
3 6 5 2 2 1 4 6 7 8 5 3 4 1 2 5 5 8 7 11 9 9 10 11 12 13 15 13 7 15 28 23 20 20 18 14 10 18 28 33 32 33 35 35 31 29 28 24 22 20 18 15 15 14
7 5 6 4 4 5 8 8 9 8 7 6 4 3 2 2 4 5 6 11 10 9 10 11 13 14 15 13 12 11 19 38 40 14 16 14 10 16 20 25 29 34 37 35 31 30 29 25 23 20 17 15 15 15
7 8 5 5 5 7 8 9 9 6 6 6 5 6 5 4 3 8 8 12 14 12 11 10 11 13 15 15 13 11 13 20 36 23 22 23 21 19 18 22 28 32 34 33 32 31 29 27 25 20 16 16 14 13
Wind_Direction_850mb
339 341 344 351 345 345 345 348 354 355 352 358 356 354 357 3 6 11 343 1 2 325 356 6 3 7 17 34 62 263 313 23 347 45 48 69 111 99 115 142 155 171 153 172 164 191 185 155 151 247 84 119 139 181
345 344 346 344 343 342 339 349 355 352 358 356 351 347 349 360 2 2 354 355 338 311 321 359 46 20 27 21 354 65 77 39 18 45 53 79 113 170 136 145 173 168 91 169 186 70 99 140 79 107 103 324 279 281
348 345 345 346 340 343 344 341 350 347 355 360 353 354 356 357 358 355 343 351 14 351 148 77 5 354 26 14 15 342 70 29 57 18 32 65 91 295 142 96 122 128 181 154 194 121 135 143 160 139 318 305 311 293
344 345 349 344 342 343 342 337 347 343 349 347 354 351 347 344 347 353 15 17 16 331 309 73 37 17 345 15 22 35 61 56 63 45 60 54 88 330 78 77 238 34 192 192 198 145 159 173 46 357 330 317 303 293
341 354 348 343 349 346 343 340 340 336 341 340 338 338 335 332 334 331 330 359 9 12 335 22 54 15 29 61 59 68 56 42 31 56 56 63 60 312 75 223 143 216 24 249 41 51 337 21 344 324 314 306 304 308
341 347 339 337 343 348 346 342 333 333 334 335 328 332 337 336 338 340 323 2 17 8 330 358 60 43 59 76 84 74 56 45 52 44 61 71 53 333 357 98 79 69 53 356 344 355 305 291 294 312 319 326 328 326
329 337 336 330 335 342 342 340 339 341 337 333 329 331 340 0 20 35 24 345 4 11 341 278 114 7 11 66 60 56 48 46 37 78 53 57 75 4 358 75 67 34 11 334 293 283 279 278 330 327 318 309 325 308
325 318 323 326 329 339 340 339 337 337 338 333 334 340 360 21 44 26 53 25 14 356 347 336 2 1 4 49 53 18 34 34 36 63 46 26 81 21 97 73 42 45 76 43 59 23 322 329 310 329 337 308 289 291
327 321 306 320 329 335 345 330 338 344 345 339 339 358 23 17 13 340 320 27 53 29 359 303 357 62 28 38 62 30 8 73 33 54 45 345 90 74 33 335 289 247 37 17 344 306 331 315 308 312 307 300 302 305
325 324 302 318 331 337 341 339 339 345 347 344 359 8 8 338 327 342 354 338 102 48 9 315 68 70 43 57 55 118 16 70 89 53 83 27 73 351 337 344 270 263 262 342 332 3 353 332 337 319 315 312 308 308
326 324 306 318 327 337 340 335 341 349 1 9 2 358 321 329 359 336 340 341 14 32 18 22 15 43 63 28 99 7 114 215 145 83 317 147 124 210 40 67 68 70 69 52 37 16 1 347 335 326 324 327 351 328
330 328 315 309 319 334 341 334 337 355 354 332 317 328 348 347 309 292 37 122 330 42 55 355 54 18 40 1 1 47 23 211 73 127 191 161 99 96 88 75 69 58 48 39 32 34 24 11 357 352 14 353 346 334
325 328 320 305 313 339 342 340 350 350 340 0 15 329 334 345 282 333 58 113 21 349 349 306 168 247 178 237 76 47 205 61 101 217 187 74 116 133 108 82 67 64 52 51 58 46 27 18 21 18 16 7 355 352
327 332 323 302 310 335 337 340 341 349 358 357 357 353 350 357 18 323 337 341 1 306 249 315 180 261 283 192 161 227 77 218 233 202 96 111 145 128 101 89 91 65 52 62 57 38 36 27 26 11 14 12 12 14
312 318 324 277 319 333 335 339 353 1 359 352 335 357 18 336 290 290 294 274 271 271 113 118 276 304 195 148 299 83 183 209 271 60 105 148 134 121 109 106 94 68 57 58 53 43 40 34 32 27 23 30 35 28
304 315 283 261 307 337 344 349 338 12 342 331 317 321 341 290 9 18 236 275 213 149 115 205 187 226 176 353 220 222 304 347 80 112 141 133 128 122 120 111 94 69 65 63 56 51 45 42 36 31 39 37 43 44
282 270 276 236 265 309 318 358 359 323 310 300 144 340 310 285 281 313 332 358 28 288 317 300 264 56 26 232 212 8 10 91 123 137 127 126 131 130 126 115 99 76 70 67 62 57 53 51 50 47 47 44 48 54
249 258 249 225 257 320 330 34 337 282 262 228 247 92 284 272 289 307 333 329 280 333 292 331 186 221 343 347 73 278 133 121 116 118 121 127 128 125 122 118 107 88 78 74 71 66 62 57 56 53 51 58 59 57
240 232 216 220 223 257 22 0 324 288 271 296 274 283 273 285 274 289 299 40 14 333 295 305 301 38 28 84 126 141 125 130 128 123 123 129 126 123 118 114 107 94 84 80 78 75 68 66 67 63 58 55 61 62
190 187 188 199 201 242 267 226 327 282 272 324 279 288 287 291 304 252 274 1 16 23 17 31 18 335 308 300 292 129 132 133 134 133 132 136 135 129 121 118 116 108 90 80 75 77 80 75 70 73 72 67 65 64
124 161 176 176 191 209 208 305 253 264 300 282 283 290 261 264 255 236 131 33 61 38 32 345 331 343 36 165 202 166 156 150 138 139 143 139 143 143 135 130 122 112 101 93 87 80 81 82 84 82 78 75 72 69
144 167 178 172 130 191 262 247 263 296 267 265 274 242 227 240 197 103 99 59 66 27 342 335 341 356 41 48 10 225 171 163 152 145 149 147 141 140 140 145 137 123 111 106 104 102 96 92 90 87 86 79 77 80
80 74 92 96 161 199 262 228 262 259 258 246 229 229 203 154 91 148 92 80 99 28 2 350 355 6 44 26 29 105 152 167 172 166 163 156 149 142 138 140 140 134 128 121 115 113 113 104 100 96 91 86 81 76
61 229 246 231 210 243 234 236 233 252 250 239 227 201 129 52 165 162 81 74 66 16 14 8 19 25 97 55 60 121 137 160 171 166 166 164 158 154 149 143 141 138 142 137 128 120 120 119 107 104 100 95 90 87
298 212 218 223 216 236 220 210 228 234 238 204 250 154 73 66 152 63 66 67 38 16 1 9 25 18 19 32 53 44 163 162 174 171 172 170 167 163 157 148 145 148 147 144 141 135 129 124 121 116 109 105 102 94
261 202 205 243 158 228 224 274 287 301 291 283 51 35 10 261 223 90 79 27 8 347 348 355 354 353 2 345 294 347 305 271 190 180 189 190 191 187 177 166 160 161 161 158 152 147 139 135 129 122 116 110 104 102
262 246 220 242 272 241 250 204 177 228 74 22 22 320 285 251 115 89 101 348 345 334 332 335 332 327 321 319 253 274 296 248 201 199 198 204 200 193 192 182 175 174 163 158 154 154 152 147 142 136 129 121 114 109
266 280 260 235 238 248 314 338 26 37 64 14 277 282 10 8 50 78 33 322 324 330 331 326 325 322 313 300 236 226 20 284 178 165 165 167 164 154 162 166 170 168 162 160 158 157 159 160 159 155 148 141 132 122
240 234 266 260 246 201 123 45 112 99 15 293 295 100 108 89 155 283 296 311 321 335 341 341 325 333 315 271 214 208 263 198 179 177 171 163 158 165 165 168 168 171 171 173 171 169 167 165 167 168 165 162 161 153
231 206 240 209 230 193 171 186 150 170 83 119 123 109 130 154 219 311 337 314 300 325 344 349 347 341 355 327 224 192 190 194 167 147 185 184 189 186 193 195 194 185 190 190 190 189 185 188 188 184 177 175 177 179
246 206 256 242 211 136 186 194 158 143 132 115 83 83 124 214 258 268 293 340 334 321 328 334 347 346 348 348 317 207 189 198 194 213 214 206 220 206 207 206 201 196 197 197 200 195 187 181 180 180 182 185 191 182
205 223 175 188 172 194 175 175 184 205 193 198 188 169 173 226 237 232 284 333 339 329 322 327 339 351 354 338 324 289 232 212 204 220 203 188 199 196 201 198 198 194 191 187 179 175 172 173 172 171 171 184 174 174
203 185 181 160 163 189 196 194 208 192 194 207 198 201 208 265 251 251 304 330 333 322 320 322 337 348 347 343 327 307 270 227 200 205 196 203 180 167 173 176 179 175 175 172 168 171 175 179 183 191 199 198 199 212